Powrót do katalogu

CBERS-4

AktywnyNaukaSSO
NORAD 40336·PAYLOAD·🇨🇳 China

Wystrzelony Dec 7, 2014 z Taiyuan Satellite Launch Center

Loading…

Następne Przeloty (najbliższe 24 godziny)

TLE

ŚwieżeSource: Space-Track

Epoka: Sep 14, 2026, 14:29 UTC

1 40336U 14079A   26257.60365993  .00000106  00000-0  51538-4 0  9993
2 40336  98.3443 311.5903 0001963  96.7463 263.3947 14.35519005616780

Śledź CBERS-4 w czasie rzeczywistym z AllMySat

Download on the App Store